Location: Quaker Farms
(41.4276°N, 73.1557°W)
Time: 20:10:48
(UTC+00:00)

S-56A Canister/Altair - Pass Details

Date: 19 June 2021
Orbit: 631 x 2501 km, 38.9° (Epoch: 30 July)

Event Time Altitude Azimuth Distance (km) Brightness Sun altitude
Rises 15:00:41 0° 276° (W) 3,432 10.6 60.3°
Reaches altitude 10° 15:03:12 10° 264° (W) 2,684 10.2 60.7°
Maximum altitude 15:08:42 29° 206° (SSW) 2,030 10.1 61.6°
Drops below altitude 10° 15:16:20 10° 151° (SSE) 3,784 11.6 62.8°
Sets 15:20:37 0° 142° (SE) 5,107 12.1 63.5°
